{"data":{"norad_id":64241,"epoch":"2026-09-20T22:42:05.010912Z","epoch_age_seconds":99037,"freshness":"FRESH","line1":"1 64241U 25119J   26263.94589133  .00119026  00000+0  91760-3 0  9990","line2":"2 64241  43.0019 112.1568 0002323 264.1531  95.9072 15.70845608 75954","mean_motion":15.70845608,"eccentricity":0.0002323,"inclination_deg":43.0019,"raan_deg":112.1568,"arg_perigee_deg":264.1531,"mean_anomaly_deg":95.9072,"bstar":0.0009176,"rev_number":7595,"period_min":91.670371210663,"perigee_km":354.91458159825,"apogee_km":358.04348420714,"semimajor_km":6734.6160329027,"source":"CELESTRAK","updated_at":"2026-09-21T09:00:35.277882Z"}}